Regional Weather Roundup
Issued by NWS

Home | Current Version | Previous Version | Text Only | Print | Product List | Glossary Off
Versions: 1 2 3 4 5 6 7 8 9 10 11 12 13 14 15 16 17 18 19 20 21 22 23 24 25 26 27

000
ASUS45 KCYS 270010
RWRWY

WYOMING REGIONAL WEATHER ROUNDUP
NATIONAL WEATHER SERVICE CHEYENNE WY
600 PM MDT FRI MAY 26 2017

NOTE:  "FAIR" INDICATES FEW OR NO CLOUDS BELOW 12,000 FEET
WITH NO SIGNIFICANT WEATHER AND/OR OBSTRUCTIONS TO VISIBILITY.

WYZ001-270100-
YELLOWSTONE NATIONAL PARK

CITY           SKY/WX    TMP DP  RH WIND       PRES   REMARKS
LK YELLOWSTONE   N/A     38  34  85 VRB3      30.04R
6HR MIN TEMP:  32; 6HR MAX TEMP:  39; 6HR PCP:  0.18;

W YELLOWSTONE  NOT AVBL

$$
WYZ002>013-054>058-071-098>099-270100-
NORTHERN WYOMING

CITY           SKY/WX    TMP DP  RH WIND       PRES   REMARKS
JACKSON        MOSUNNY   48  39  71 N7        29.97S
CODY           FAIR      46  38  73 W7        30.01R
GREYBULL       CLOUDY    54  41  61 NW12      29.95R
6HR MIN TEMP:  51; 6HR MAX TEMP:  63; 6HR PCP:  0.01;

WORLAND        CLOUDY    50  43  77 NE7       29.96R
6HR MIN TEMP:  49; 6HR MAX TEMP:  57; 6HR PCP:  0.02;

SHERIDAN       LGT RAIN  50  45  83 W8        29.98R
6HR MIN TEMP:  50; 6HR MAX TEMP:  60; 6HR PCP:  0.02;

BUFFALO        LGT RAIN  48  40  73 NW5       29.99R
6HR MIN TEMP:  48; 6HR MAX TEMP:  54; 6HR PCP:  0.02;

GILLETTE       CLOUDY    54  39  57 S6        29.95R
6HR MIN TEMP:  54; 6HR MAX TEMP:  59;

HULETT         CLOUDY    57  34  41 N3        29.95R
NEWCASTLE      LGT RAIN  48  45  87 SW6       29.99S

$$
WYZ014>020-022>026-101>103-270100-
CENTRAL WYOMING

CITY           SKY/WX    TMP DP  RH WIND       PRES   REMARKS
BIG PINEY      FAIR      49  33  54 NW10      29.96R
6HR MIN TEMP:  41; 6HR MAX TEMP:  58;

PINEDALE       LGT RAIN  46  34  61 NW18G33   29.98R
DUBOIS         DRIZZLE   39  36  87 E3        29.99R
LANDER         CLOUDY    45  42  89 NW9       29.95R
6HR MIN TEMP:  40; 6HR MAX TEMP:  47; 6HR PCP:  0.09;

RIVERTON       LGT RAIN  45  40  82 N18       29.97R
6HR MIN TEMP:  43; 6HR MAX TEMP:  47; 6HR PCP:  0.04;

CASPER         CLOUDY    45  42  89 E10       29.96R
6HR MIN TEMP:  44; 6HR MAX TEMP:  50; 6HR PCP:  0.19;

DOUGLAS        LGT RAIN  45  42  89 N6        30.00R
6HR MIN TEMP:  44; 6HR MAX TEMP:  54; 6HR PCP:  0.24;


$$
WYZ021-027>030-104>119-270100-
SOUTHERN WYOMING

CITY           SKY/WX    TMP DP  RH WIND       PRES   REMARKS
EVANSTON       FAIR      54  28  36 W21G35    29.98R
6HR MIN TEMP:  44; 6HR MAX TEMP:  56; 6HR PCP: TRACE;

KEMMERER         N/A     52  30  43 W24G33    29.97R
FORT BRIDGER   FAIR      58  24  27 W24G31    29.99R
ROCK SPRINGS   LGT RAIN  50  34  54 W8        29.93R
6HR MIN TEMP:  47; 6HR MAX TEMP:  58; 6HR PCP:  0.02;

DIXON            N/A     49  42  75 N6        30.00R
RAWLINS        LGT RAIN  46  38  73 W9        29.99R
6HR MIN TEMP:  44; 6HR MAX TEMP:  60; 6HR PCP:  0.10;

SARATOGA       MOCLDY    45  37  76 N16       30.02R
LARAMIE        LGT RAIN  49  42  77 MISG      29.93R
6HR MIN TEMP:  48; 6HR MAX TEMP:  60; 6HR PCP:  0.04;

CHEYENNE       LGT RAIN  58  47  66 SE10      29.87S
6HR MIN TEMP:  53; 6HR MAX TEMP:  60; 6HR PCP:  0.02;

TORRINGTON     LGT RAIN  54  50  86 E6        29.87R
6HR MIN TEMP:  53; 6HR MAX TEMP:  63; 6HR PCP:  0.17;

PINE BLUFFS    CLOUDY    59  46  63 E10G20    29.85F

$$




USA.gov is the U.S. government's official web portal to all federal, state and local government web resources and services.